User: anonymous   Login
Location: Copeville
(33.0796°N, 96.4155°W)
Time: 14:30:48
(UTC+00:00)
Language:

NOAA 19 - Orbit

View from above orbital plane
View from above orbital plane
View from above satellite
View from above satellite

Ground track
Ground track

The orbit data is extracted from the following two-line orbital elements,

1 33591U 09005A   23343.10565399  .00000181  00000-0  12190-3 0  9994
2 33591  99.0773  31.6369 0014758 110.0337 250.2424 14.12882769764640
Epoch (UTC): 09 December 2023 02:32:08
Eccentricity: 0.0014758
inclination: 99.0773°
perigee height: 839 km
apogee height: 860 km
right ascension of ascending node: 31.6369°
argument of perigee: 110.0337°
revolutions per day: 14.12882769
mean anomaly at epoch: 250.2424°
orbit number at epoch: 76464

The dashed part of the orbit path shows where the satellite is in the earth's shadow,  

DLR